Miscellaneous Local Product
Issued by NWS Hastings, NE

Home | Current Version | Previous Version | Text Only | Print | Product List | Glossary Off
Versions: 1 2 3 4 5 6 7 8 9 10 11 12 13 14 15 16 17 18 19 20 21 22 23 24 25 26 27 28 29 30 31 32 33 34 35 36 37 38 39 40 41 42 43 44 45 46 47 48 49 50

000
AXUS43 KGID 230502
MISGRI

GID CWA HOURLY WEATHER ROUNDUP
NATIONAL WEATHER SERVICE HASTINGS NE
1200 AM CDT THU MAR 23 2017

NOTE: "FAIR" INDICATES FEW OR NO CLOUDS BELOW 12,000 FEET WITH NO
SIGNIFICANT WEATHER AND/OR OBSTRUCTIONS TO VISIBILITY.

...SOUTH CENTRAL NEBRASKA...

CITY           SKY/WX    TMP DP  RH WIND       PRES   REMARKS
GRAND ISLAND   CLOUDY    50  28  42 S20       30.05F
HASTINGS       CLOUDY    50  28  42 S14       30.05F
KEARNEY        CLOUDY    48  28  46 S21       30.03R
ORD            CLOUDY    49  23  36 S12       30.00F
YORK           CLOUDY    50  27  40 S17G24    30.07F
AURORA         CLOUDY    50  26  38 S17G25    30.05F
LEXINGTON      CLOUDY    46  32  58 SE14      29.99F
HOLDREGE       PTCLDY    47  33  57 S16       30.00F
HEBRON         CLOUDY    51  26  38 SE14      30.08F

...NEBRASKA PANHANDLE...

CITY           SKY/WX    TMP DP  RH WIND       PRES   REMARKS
CHADRON        PTCLDY    53  37  54 S30G38    29.74F
ALLIANCE       CLOUDY    45  35  68 S21G30    29.83F
SCOTTSBLUFF    CLOUDY    50  36  58 E20       29.81F
SIDNEY         CLOUDY    50  38  63 S17       29.87F

...WESTERN AND NORTH CENTRAL NEBRASKA...

CITY           SKY/WX    TMP DP  RH WIND       PRES   REMARKS
VALENTINE      CLOUDY    44  29  55 S13       29.91F
AINSWORTH      CLOUDY    43  31  63 S15       29.93F
ONEILL         CLOUDY    50  26  38 S15       30.00F
BROKEN BOW     CLOUDY    43  26  51 S12       29.98F
IMPERIAL       CLOUDY    45  33  63 SE17G25   29.92F
NORTH PLATTE   CLOUDY    43  30  60 SE10      29.95F
MCCOOK         CLOUDY    44  35  70 SE12      29.96F

...EASTERN NEBRASKA...

CITY           SKY/WX    TMP DP  RH WIND       PRES   REMARKS
NORFOLK        CLOUDY    45  26  47 SE14      30.05F
SO SIOUX CITY  CLOUDY    42  26  53 SE14      30.12F
TEKAMAH        CLOUDY    44  25  47 SE18      30.14F
COLUMBUS       CLOUDY    48  27  43 SE15      30.08F
ALBION         CLOUDY    52  25  35 S14G24    30.04S
OMAHA EPPLEY   CLOUDY    46  24  42 SE22      30.15F
OFFUTT AFB     MOCLDY    45  23  41 SE17      30.15F
MILLARD        CLOUDY    47  28  46 SE14G22   30.14F
LINCOLN        CLOUDY    50  26  39 SE15      30.13F
NEBRASKA CITY  CLOUDY    47  18  31 SE14G22   30.15F
BEATRICE       CLOUDY    51  28  40 SE10      30.12S
FALLS CITY     CLOUDY    49  25  39 SE13G24   30.15F

...NORTHERN KANSAS...

CITY           SKY/WX    TMP DP  RH WIND       PRES   REMARKS
GOODLAND       CLOUDY    46  37  71 SE24G33   29.90F
HILL CITY      CLOUDY    47  36  65 SE8       30.01F
NORTON         CLEAR     45  30  57 SE14      29.99F
PHILLIPSBURG   CLEAR     48  34  57 SE10      30.04F
HAYS             N/A     46  36  68 SE8       30.04F
RUSSELL        MOCLDY    49  34  56 SE10      30.03F
CONCORDIA      CLOUDY    52  30  43 SE8       30.09F
SALINA         MOCLDY    53  34  48 SE9       30.08S
TOPEKA         CLOUDY    53  30  41 E14       30.14F



USA.gov is the U.S. government's official web portal to all federal, state and local government web resources and services.